User: anonymous   Login
Location: Unspecified
(0.0000°N, 0.0000°E)
Time: 16:42:09
(UTC+00:00)
Language:

NOSS 2-1 (D) - Orbit

View from above orbital plane
View from above orbital plane
View from above satellite
View from above satellite

Ground track
Ground track

The orbit data is extracted from the following two-line orbital elements,

1 20692U 90050D   17085.88088072 0.00000100  00000-0  26643-4 0    04
2 20692  63.3450  46.1707 0783000  30.3771 329.6229 13.41667590    01
Epoch (UTC): 26 March 2017 21:08:28
Eccentricity: 0.0783000
inclination: 63.3450°
perigee height: 517 km
apogee height: 1689 km
right ascension of ascending node: 46.1707°
argument of perigee: 30.3771°
revolutions per day: 13.41667590
mean anomaly at epoch: 329.6229°
orbit number at epoch: 0

The dashed part of the orbit path shows where the satellite is in the earth's shadow,  

DLR